This is the latest recevied weather packets stored in our database for station/object IW3HBX-3. If no packets are shown the sender has not sent any weather packets the latest 10 day(s).
| Time | Temp. | Humidity | Pressure | Rain* | Wind** | Luminosity | Snow |
|---|---|---|---|---|---|---|---|
| 1777653014 | 20.56° C | 29% | 1025.1 hPa | 0 mm | - | 142 W/m² | - |
| 1777652714 | 20.56° C | 30% | 1025.3 hPa | 0 mm | - | 156 W/m² | - |
| 1777652414 | 21.11° C | 28% | 1025.3 hPa | 0 mm | - | 170 W/m² | - |
| 1777652114 | 21.67° C | 29% | 1025.3 hPa | 0 mm | - | 185 W/m² | - |
| 1777651815 | 21.67° C | 28% | 1025.3 hPa | 0 mm | - | 198 W/m² | - |
| 1777651515 | 21.67° C | 28% | 1025.3 hPa | 0 mm | - | 215 W/m² | - |
| 1777651215 | 21.67° C | 28% | 1025.2 hPa | 0 mm | - | 230 W/m² | - |
| 1777650915 | 21.11° C | 29% | 1025.3 hPa | 0 mm | - | 246 W/m² | - |
| 1777650616 | 20.56° C | 28% | 1025.4 hPa | 0 mm | - | 262 W/m² | - |
| 1777650316 | 21.11° C | 28% | 1025.4 hPa | 0 mm | - | 274 W/m² | - |
| 1777650016 | 21.11° C | 28% | 1025.5 hPa | 0 mm | - | 292 W/m² | - |
| 1777649716 | 21.11° C | 29% | 1025.5 hPa | 0 mm | - | 308 W/m² | - |
| 1777649417 | 21.67° C | 27% | 1025.5 hPa | 0 mm | - | 325 W/m² | - |
| 1777649117 | 21.11° C | 29% | 1025.6 hPa | 0 mm | - | 340 W/m² | - |
| 1777648517 | 21.67° C | 29% | 1025.7 hPa | 0 mm | - | 368 W/m² | - |
| 1777648218 | 21.67° C | 28% | 1025.7 hPa | 0 mm | - | 385 W/m² | - |
| 1777647918 | 21.67° C | 28% | 1025.7 hPa | 0 mm | - | 400 W/m² | - |
| 1777647318 | 21.67° C | 29% | 1025.9 hPa | 0 mm | - | 430 W/m² | - |
| 1777647019 | 21.67° C | 29% | 1025.9 hPa | 0 mm | - | 446 W/m² | - |
| 1777646719 | 21.67° C | 29% | 1025.9 hPa | 0 mm | - | 462 W/m² | - |
| 1777646119 | 21.67° C | 29% | 1025.9 hPa | 0 mm | - | 495 W/m² | - |
| 1777645520 | 21.67° C | 28% | 1025.9 hPa | 0 mm | - | 520 W/m² | - |
| 1777644920 | 21.67° C | 30% | 1026.1 hPa | 0 mm | - | 546 W/m² | - |
| 1777644620 | 21.67° C | 29% | 1026 hPa | 0 mm | - | 560 W/m² | - |
| 1777644321 | 21.67° C | 30% | 1026.1 hPa | 0 mm | - | 570 W/m² | - |
* Rain latest hour (hover to see other rain measurements)
** Current wind speed in m/s (hover to see current wind gust speed)